EW1931 Weather Reports


time (UTC)temp
C
wind
direction
speed
KPH
gust
KPH
rain 1hr
cm
rain 24hr
cm
rain mn
cm
humidity
%
barometer
mb
20260905163048 18 333 9.7 19.3 0.00 0.03 0.03 59 1015.0
20260905161559 18 318 14.5 22.5 0.00 0.03 0.03 62 1015.0
20260905160031 18 323 14.5 19.3 0.00 0.03 0.03 62 1015.2
20260905154529 17 346 12.9 22.5 0.00 0.03 0.03 62 1015.0
20260905153013 17 324 17.7 24.1 0.00 0.03 0.03 65 1014.9
20260905151511 15 315 14.5 25.7 0.00 0.03 0.03 73 1015.0
20260905150054 15 302 17.7 29.0 0.00 0.03 0.03 75 1014.9
20260905144552 14 303 24.1 33.8 0.00 0.03 0.03 75 1014.8
20260905143036 13 299 17.7 25.7 0.00 0.03 0.03 76 1015.1
20260905141536 13 311 16.1 22.5 0.00 0.03 0.03 78 1014.7
20260905140016 12 298 14.5 24.1 0.00 0.03 0.03 81 1014.8
20260905134516 11 246 9.7 12.9 0.00 0.03 0.03 85 1015.1
20260905133058 11 263 8.0 12.9 0.00 0.03 0.03 84 1015.3
20260905131606 11 224 8.0 12.9 0.03 0.03 0.03 83 1015.0
20260905130037 11 15 9.7 20.9 0.03 0.03 0.03 82 1013.8
20260905124537 10 15 14.5 22.5 0.03 0.03 0.03 82 1013.3
20260905123021 11 294 11.3 17.7 0.03 0.03 0.03 83 1013.5
20260905121525 11 14 8.0 17.7 0.00 0.00 0.00 82 1014.6
20260905120100 11 15 14.5 20.9 0.00 0.00 0.00 76 1015.1
20260905114556 12 243 16.1 19.3 0.00 0.00 0.00 73 1014.6
20260905113037 11 284 9.7 16.1 0.00 0.00 0.00 71 1013.6
20260905111543 12 287 11.3 16.1 0.00 0.00 0.00 70 1013.7
20260905110019 11 290 16.1 20.9 0.00 0.00 0.00 71 1013.7
20260905104516 11 275 9.7 14.5 0.00 0.00 0.00 71 1013.7
20260905103058 11 302 14.5 17.7 0.00 0.00 0.00 72 1013.2
20260905101602 11 288 16.1 22.5 0.00 0.00 0.00 69 1013.1
20260905100040 12 310 12.9 17.7 0.00 0.00 0.00 68 1013.0
20260905094540 12 336 11.3 16.1 0.00 0.00 0.00 67 1013.0
20260905093022 11 332 12.9 16.1 0.00 0.00 0.00 71 1013.1
20260905091522 10 360 9.7 14.5 0.00 0.00 0.00 72 1012.9
20260905090003 10 355 9.7 12.9 0.00 0.00 0.00 70 1013.0
20260905084502 10 360 8.0 11.3 0.00 0.00 0.00 70 1012.9
20260905083101 10 340 11.3 17.7 0.00 0.00 0.00 69 1012.5
20260905081540 11 321 8.0 14.5 0.00 0.00 0.00 68 1012.7
20260905080042 11 305 11.3 14.5 0.00 0.00 0.00 67 1013.1
20260905074521 11 284 11.3 14.5 0.00 0.00 0.00 67 1013.4
20260905073022 11 285 11.3 12.9 0.00 0.00 0.00 66 1013.3
20260905071502 11 290 11.3 12.9 0.00 0.00 0.00 66 1013.3
20260905070110 11 290 12.9 16.1 0.00 0.00 0.00 64 1013.0
20260905064543 11 301 12.9 16.1 0.00 0.00 0.00 64 1012.8
20260905063037 12 300 11.3 16.1 0.00 0.00 0.00 60 1012.8
20260905061519 12 315 11.3 16.1 0.00 0.00 0.00 59 1012.8
20260905060018 13 304 11.3 14.5 0.00 0.00 0.00 57 1012.7
20260905054603 13 323 14.5 17.7 0.00 0.00 0.00 57 1012.3
20260905053100 12 336 14.5 19.3 0.00 0.00 0.00 58 1012.0
20260905051545 12 347 11.3 16.1 0.00 0.00 0.00 58 1012.2
20260905050046 12 340 11.3 16.1 0.00 0.00 0.00 59 1012.5
20260905044522 12 360 12.9 14.5 0.00 0.00 0.00 57 1012.4
20260905043021 12 13 11.3 16.1 0.00 0.00 0.00 56 1012.1
20260905041509 13 16 6.4 8.0 0.00 0.00 0.00 55 1012.5
20260905040005 12 21 8.0 11.3 0.00 0.00 0.00 56 1012.2
20260905034502 12 19 11.3 14.5 0.00 0.00 0.00 55 1011.9
20260905033058 13 30 12.9 14.5 0.00 0.00 0.00 52 1011.5
20260905031554 13 31 8.0 11.3 0.00 0.00 0.00 51 1011.8
20260905030053 13 14 11.3 14.5 0.00 0.00 0.00 50 1011.3
20260905024548 15 355 9.7 16.1 0.00 0.00 0.00 48 1010.9
20260905023043 16 11 9.7 14.5 0.00 0.00 0.00 45 1010.9
20260905021523 17 341 9.7 12.9 0.00 0.00 0.00 42 1010.9
20260905020025 18 355 11.3 19.3 0.00 0.00 0.00 40 1010.2
20260905014559 19 342 14.5 29.0 0.00 0.00 0.00 38 1009.7
20260905013101 20 5 16.1 32.2 0.00 0.00 0.00 37 1009.4
20260905011539 20 334 27.4 38.6 0.00 0.00 0.00 35 1008.8
20260905010038 21 336 25.7 35.4 0.00 0.00 0.00 34 1008.9
20260905004521 21 351 27.4 37.0 0.00 0.00 0.00 34 1008.9
20260905003020 21 25 22.5 35.4 0.00 0.00 0.00 33 1009.1
20260905001502 22 331 27.4 38.6 0.00 0.00 0.00 33 1008.7
20260905000100 22 348 30.6 40.2 0.00 0.00 0.00 33 1008.7
20260904234547 22 329 29.0 45.1 0.00 0.00 0.00 32 1008.3
20260904233039 23 327 30.6 43.5 0.00 0.00 0.00 31 1008.4
20260904231521 24 336 27.4 51.5 0.00 0.00 0.00 31 1008.3
20260904230020 24 294 25.7 38.6 0.00 0.00 0.00 31 1008.3
20260904224507 23 308 22.5 41.8 0.00 0.00 0.00 30 1008.2
20260904223007 23 296 27.4 37.0 0.00 0.00 0.00 31 1008.2
20260904221505 24 304 29.0 37.0 0.00 0.00 0.00 31 1008.1
20260904220004 24 290 25.7 40.2 0.00 0.00 0.00 30 1007.9
20260904214506 24 307 32.2 40.2 0.00 0.00 0.00 30 1007.9
20260904213108 25 316 30.6 38.6 0.00 0.00 0.00 30 1007.5
20260904211601 25 271 29.0 40.2 0.00 0.00 0.00 30 1007.1
20260904210107 24 279 32.2 43.5 0.00 0.00 0.00 30 1007.1
20260904204536 24 296 27.4 38.6 0.00 0.00 0.00 30 1007.0
20260904203043 23 292 30.6 40.2 0.00 0.00 0.00 31 1006.8
20260904201516 23 290 22.5 40.2 0.00 0.00 0.00 32 1006.8
20260904200016 22 257 22.5 33.8 0.00 0.00 0.00 33 1006.8
20260904194555 22 309 24.1 32.2 0.00 0.00 0.00 35 1006.6
20260904193057 22 258 24.1 32.2 0.00 0.00 0.00 36 1006.4
20260904191533 21 259 20.9 30.6 0.00 0.00 0.00 37 1006.2
20260904190029 21 262 22.5 30.6 0.00 0.00 0.00 37 1006.1
20260904184511 21 240 22.5 30.6 0.00 0.00 0.00 38 1006.1
20260904183010 20 237 24.1 30.6 0.00 0.00 0.00 40 1006.0
20260904181550 21 246 24.1 33.8 0.00 0.00 0.00 40 1006.0
20260904180049 20 244 19.3 29.0 0.00 0.00 0.00 40 1005.9
20260904174528 19 251 17.7 24.1 0.00 0.00 0.00 42 1005.8
20260904173031 18 242 12.9 20.9 0.00 0.00 0.00 42 1005.6
20260904171502 18 259 17.7 27.4 0.00 0.00 0.00 45 1005.6
20260904170100 17 261 19.3 30.6 0.00 0.00 0.00 49 1005.7
20260904164540 17 257 20.9 30.6 0.00 0.00 0.00 47 1005.6